Winfield, KS

5:47 AM CST on December 12, 2019 (GMT -0600)
Strother

Weather History for KWLD - October, 2019

Change the Weather History Date:

Monday, October 21, 2019

  Actual Average Record
Temperature  
Mean Temperature 54 °F -  
Max Temperature 66 °F 67 °F 88 °F (2012)
Min Temperature 43 °F 46 °F 30 °F (2006)
Degree Days  
Heating Degree Days 10    
Growing Degree Days 4 (Base 50)    
Moisture  
Dew Point 31 °F    
Average Humidity 44    
Maximum Humidity 68    
Minimum Humidity 21    
Precipitation  
Precipitation 0.00 in - - ()
Sea Level Pressure  
Sea Level Pressure 29.80 in    
Wind  
Wind Speed 13 mph ()    
Max Wind Speed 26 mph    
Max Gust Speed 39 mph    
Visibility 9.2 miles    
Events Rain    
Averages and records for this station are not official NWS values.
T = Trace of Precipitation, MM = Missing Value Source: Averaged Metar Reports

Daily Weather History Graph

Daily Weather History Graph

Search for Another Location

Airport or City:

Astronomy

Oct. 21, 2019 Rise Set
Actual Time 7:41 AM CDT 6:43 PM CDT
Civil Twilight 7:15 AM CDT 7:09 PM CDT
Nautical Twilight 6:44 AM CDT 7:40 PM CDT
Astronomical Twilight 6:14 AM CDT 8:10 PM CDT
Moon 12:00 AM CDT (10/21) 2:55 PM CDT (10/21)
Length of Visible Light 11h 54m
Length of Day
11h 02m
Waning Gibbous, 48% of the Moon is Illuminated
Oct 21
Waning Gibbous
Oct 27
New
Nov 4
First Quarter
Nov 12
Full
Nov 19
Last Quarter

Hourly Weather History & Observations

Time (CDT) Temp. Windchill Dew Point Humidity Pressure Visibility Wind Dir Wind Speed Gust Speed Precip Events Conditions
12:54 AM 51.1 °F - 39.0 °F 63% 29.64 in 10.0 mi NW 12.7 mph - N/A   Clear
1:54 AM 51.1 °F - 35.1 °F 54% 29.66 in 10.0 mi NW 11.5 mph - N/A   Clear
2:54 AM 50.0 °F - 35.1 °F 57% 29.66 in 10.0 mi WNW 12.7 mph - N/A   Clear
3:54 AM 48.0 °F - 34.0 °F 58% 29.70 in 10.0 mi West 6.9 mph - N/A   Clear
4:54 AM 45.0 °F 41.8 °F 35.1 °F 68% 29.72 in 10.0 mi West 5.8 mph - N/A   Clear
5:54 AM 46.0 °F 40.6 °F 35.1 °F 66% 29.71 in 10.0 mi West 11.5 mph - N/A   Clear
6:54 AM 48.0 °F - 34.0 °F 58% 29.71 in 10.0 mi WNW 18.4 mph 29.9 mph N/A   Clear
7:54 AM 46.9 °F - 35.1 °F 63% 29.73 in 10.0 mi WNW 10.4 mph - N/A   Clear
8:54 AM 48.9 °F - 35.1 °F 59% 29.75 in 10.0 mi West 12.7 mph - N/A   Clear
9:54 AM 53.1 °F - 35.1 °F 50% 29.77 in 10.0 mi West 18.4 mph 28.8 mph N/A   Clear
10:54 AM 57.0 °F - 34.0 °F 42% 29.79 in 10.0 mi WNW 20.7 mph 33.4 mph N/A   Clear
11:54 AM 60.1 °F - 34.0 °F 38% 29.78 in 10.0 mi West 20.7 mph 29.9 mph N/A   Clear
12:54 PM 63.0 °F - 32.0 °F 31% 29.78 in 10.0 mi West 18.4 mph 34.5 mph N/A   Clear
1:54 PM 64.9 °F - 27.0 °F 24% 29.79 in 8.0 mi WNW 24.2 mph 39.1 mph N/A   Clear
2:54 PM 64.9 °F - 24.1 °F 21% 29.78 in 6.0 mi West 26.5 mph 35.7 mph N/A   Haze
3:54 PM 64.9 °F - 25.0 °F 22% 29.79 in 6.0 mi West 25.3 mph 39.1 mph 0.00 in Rain Light Rain
4:54 PM 64.0 °F - 26.1 °F 24% 29.82 in 7.0 mi WNW 24.2 mph 35.7 mph 0.00 in   Clear
5:54 PM 62.1 °F - 26.1 °F 25% 29.84 in 6.0 mi WNW 21.9 mph 32.2 mph N/A   Haze
6:54 PM 55.9 °F - 28.9 °F 36% 29.88 in 9.0 mi WNW 10.4 mph - N/A   Clear
7:54 PM 55.0 °F - 27.0 °F 34% 29.92 in 10.0 mi WNW 15.0 mph 23.0 mph N/A   Clear
8:54 PM 54.0 °F - 26.1 °F 34% 29.96 in 10.0 mi WNW 15.0 mph - N/A   Clear
9:54 PM 53.1 °F - 26.1 °F 35% 29.99 in 10.0 mi WNW 12.7 mph - N/A   Clear
10:54 PM 48.9 °F - 26.1 °F 41% 30.02 in 10.0 mi WNW 8.1 mph - N/A   Clear
11:54 PM 43.0 °F 38.8 °F 28.0 °F 56% 30.04 in 10.0 mi West 6.9 mph - N/A   Clear